Regional Weather Roundup
Issued by NWS

Home | Current Version | Previous Version | Text Only | Print | Product List | Glossary On
Versions: 1 2 3 4 5 6 7 8 9 10 11 12 13 14 15 16 17 18 19 20 21 22 23 24 25 26 27 28 29 30 31 32 33 34 35 36 37 38 39 40 41 42 43 44 45 46 47 48 49 50
000
ASCA42 TJSJ 171611
RWRPR
PUERTO RICO/U.S. VIRGIN ISLANDS HOURLY WEATHER ROUNDUP
NATIONAL WEATHER SERVICE SAN JUAN PR
1200 PM AST WED SEP 17 2014

PRZ001-004-171700-
PUERTO RICO

CITY           SKY/WX    TMP DP  RH WIND       PRES   REMARKS
SAN JUAN LMM   PTSUNNY   88  75  66 NE12      29.98F HX  97
MAYAGUEZ       PTSUNNY   86  72  62 SW7       30.00S HX  92
AGUADILLA      MOSUNNY   84  73  70 NE12      30.01F HX  91
CEIBA          MOSUNNY   90  75  62 E7        30.01F HX 100
$$

PRZ006-007-171700-
U.S. VIRGIN ISLANDS

CITY           SKY/WX    TMP DP  RH WIND       PRES   REMARKS
CHARLOTTE AMA  SUNNY     84  72  65 SE15      29.98
CHRISTIANSTED  MOSUNNY   90  75  62 E14       29.98F HX 100
$$

HOURLY WEATHER ROUNDUP FOR THE NEWS MEDIA

CITY           SKY/WX    TMP DP  RH WIND       PRES   REMARKS
MIAMI          MOSUNNY   87  71  58 VRB6      29.98F HX  93
ORLANDO        PTSUNNY   83  73  72 SW13      29.95F
NEW YORK       MOSUNNY   70  42  36 CALM      30.04F
NEWARK         MOSUNNY   71  41  33 NW9       30.04F
CHICAGO        MOSUNNY   62  43  49 VRB3      30.03S
HARTFORD       SUNNY     69  47  45 VRB3      29.99F
BOSTON         MOSUNNY   67  48  50 SE9       30.00F
DALLAS         PTSUNNY   83  70  64 S5        29.97S
PHILADELPHIA   MOSUNNY   71  47  42 VRB5      30.05F



USA.gov is the U.S. government's official web portal to all federal, state and local government web resources and services.